Flag for U.S.A. Weather past 2 weeks in Garland, Texas, U.S.A.

Now
72 °F

Partly sunny.


Feels Like: 71 °F
Forecast: 66 / 80 °F
Wind: 14 mph from Southeast

Location: Mesquite Metro Airport

Current Time: Apr 1, 2015 at 11:44:49 AM

Latest Report: Apr 1, 2015 at 10:50 AM


Visibility: 7 mi

Pressure: 29.94 "Hg

Humidity: 83%

Dew point: 66 °F

Location of GarlandLocation

Historic Weather in Garland — Graph

°F

Garland temperature yesterday

Maximum temperature yesterday: 82 °F (at 4:50 PM)
Minimum temperature yesterday: 63 °F (at 1:15 AM)
Average temperature yesterday: 69 °F

Past Weeks' High & Low Weather Summary

 TemperatureHumidityPressure
High82 °F (Mar 29, 4:50 PM)100% (Mar 19, 9:47 AM)30.31 "Hg (Mar 19, 9:47 AM)
Low41 °F (Mar 27, 7:50 AM)28% (Mar 28, 3:50 PM)29.77 "Hg (Mar 25, 11:55 PM)
Average62 °F78%30.03 "Hg
* Reported Mar 17 9:50 AM — Apr 1 9:50 AM, Garland, Weather by CustomWeather, © 2015

Note: Actual official high and low records may vary slightly from our data, if they occured in-between our weather recording intervals... More about our weather records

Advertising

Garland weather history for previous 24 hours

 ConditionsComfort  
Time TempWeatherWind HumidityBarometerVisibility
9:50 AM
Wed, Apr 1
70 °FFog.12 mph88%29.93 "Hg5 mi
8:50 AM68 °FFog.12 mph88%29.93 "Hg5 mi
7:55 AM66 °FFog.8 mph94%29.94 "Hg5 mi
6:50 AM66 °FFog.7 mph94%29.91 "Hg5 mi
6:15 AM66 °FPassing clouds.8 mph94%29.91 "Hg5 mi
5:55 AM66 °FPassing clouds.8 mph93%29.91 "Hg7 mi
5:35 AM66 °FPassing clouds.8 mph93%29.91 "Hg7 mi
5:15 AM66 °FPassing clouds.9 mph93%29.91 "Hg7 mi
4:55 AM66 °FOvercast.8 mph92%29.91 "Hg7 mi
4:15 AM66 °FOvercast.6 mph90%29.92 "Hg10 mi
3:55 AM66 °FOvercast.8 mph89%29.92 "Hg10 mi
3:35 AM66 °FOvercast.5 mph88%29.94 "Hg10 mi
3:15 AM66 °FPassing clouds.3 mph89%29.94 "Hg10 mi
2:55 AM65 °FClear.8 mph87%29.92 "Hg10 mi
2:35 AM65 °FClear.9 mph84%29.92 "Hg10 mi
2:15 AM65 °FClear.6 mph82%29.92 "Hg10 mi
1:55 AM66 °FClear.7 mph79%29.92 "Hg10 mi
1:15 AM67 °FClear.9 mph79%29.92 "Hg10 mi
12:55 AM67 °FClear.8 mph77%29.92 "Hg10 mi
12:35 AM68 °FClear.9 mph75%29.92 "Hg10 mi
12:15 AM67 °FClear.9 mph76%29.92 "Hg10 mi
11:55 PM
Tue, Mar 31
67 °FClear.7 mph75%29.93 "Hg10 mi
11:35 PM67 °FClear.7 mph74%29.93 "Hg10 mi
11:15 PM68 °FClear.7 mph71%29.92 "Hg10 mi
10:55 PM69 °FClear.8 mph71%29.92 "Hg10 mi
10:15 PM71 °FClear.9 mph66%29.91 "Hg10 mi
9:55 PM71 °FClear.10 mph66%29.91 "Hg10 mi
9:15 PM71 °FClear.8 mph65%29.91 "Hg10 mi
8:55 PM71 °FClear.8 mph65%29.91 "Hg10 mi
8:35 PM72 °FSunny.9 mph63%29.91 "Hg10 mi
8:15 PM73 °FSunny.9 mph60%29.91 "Hg10 mi
7:50 PM73 °FSunny.10 mph57%29.91 "Hg10 mi
6:50 PM79 °FSunny.16 mph54%29.89 "Hg10 mi
5:50 PM81 °FSunny.13 mph48%29.90 "Hg10 mi
4:50 PM82 °FScattered clouds.16 mph51%29.91 "Hg10 mi
3:50 PM81 °FScattered clouds.18 mph54%29.93 "Hg10 mi
2:50 PM81 °FScattered clouds.13 mph54%29.95 "Hg10 mi
1:50 PM81 °FPartly sunny.14 mph58%29.98 "Hg10 mi
12:50 PM77 °FOvercast.14 mph65%30.00 "Hg10 mi
11:50 AM75 °FOvercast.14 mph69%30.03 "Hg10 mi
Weather by CustomWeather, © 2015

See weather overviewHow to use our weather pages